This is the latest recevied weather packets stored in our database for station/object VA2CPJ. If no packets are shown the sender has not sent any weather packets the latest 10 day(s).
| Time | Temp. | Humidity | Pressure | Rain* | Wind** | Luminosity | Snow |
|---|---|---|---|---|---|---|---|
| 1777674036 | 7.22° C | 58% | 1018.4 hPa | - | - | - | - |
| 1777673124 | 7.78° C | 57% | 1019.1 hPa | - | - | - | - |
| 1777671338 | 7.78° C | 61% | 1018.8 hPa | - | - | - | - |
| 1777670726 | 7.22° C | 64% | 1018.8 hPa | - | - | - | - |
| 1777667418 | 7.78° C | 67% | 1017.4 hPa | - | - | - | - |
| 1777666526 | 7.22° C | 66% | 1018.1 hPa | - | - | - | - |
| 1777664741 | 7.22° C | 66% | 1017.7 hPa | - | - | - | - |
| 1777664120 | 7.78° C | 65% | 1017.7 hPa | - | - | - | - |
| 1777662020 | 7.22° C | 65% | 1017.1 hPa | - | - | - | - |
| 1777661425 | 7.22° C | 66% | 1016.7 hPa | - | - | - | - |
| 1777661145 | 7.22° C | 66% | 1017.4 hPa | - | - | - | - |
| 1777659631 | 7.22° C | 66% | 1016.7 hPa | - | - | - | - |
| 1777656046 | 7.22° C | 70% | 1016.4 hPa | - | - | - | - |
| 1777654521 | 6.67° C | 71% | 1017.1 hPa | - | - | - | - |
| 1777652184 | 6.11° C | 76% | 1017.4 hPa | - | - | - | - |
| 1777651546 | 6.11° C | 76% | 1017.1 hPa | - | - | - | - |
| 1777650933 | 6.11° C | 77% | 1017.4 hPa | - | - | - | - |
| 1777648853 | 5.56° C | 78% | 1016.4 hPa | - | - | - | - |
| 1777645526 | 5° C | 82% | 1017.1 hPa | - | - | - | - |
| 1777644922 | 5° C | 82% | 1017.1 hPa | - | - | - | - |
| 1777644723 | 5.56° C | 82% | 1016.4 hPa | - | - | - | - |
| 1777641347 | 4.44° C | 86% | 1016.7 hPa | - | - | - | - |
| 1777640757 | 4.44° C | 87% | 1016.7 hPa | - | - | - | - |
| 1777639821 | 3.89° C | 88% | 1016 hPa | - | - | - | - |
| 1777638377 | 3.89° C | 89% | 1016.7 hPa | - | - | - | - |
* Rain since midnight (hover to see other rain measurements)
** Current wind speed in m/s (hover to see current wind gust speed)